When you browse on this site, cookies collect data to enhance your experience and personalize the content and advertising you see.
Visit our Privacy Policy to learn more. By continuing to use the site, you agree to this use of cookies and data.
  • en Suisse
  • Liste des pays
  • À 7 jours
  • Température de l'eau
  • Carte satellitaire
  • Carte météo
  • Widgets météo
  • user-avatar
    Se connecter

    Météo par heure à Kolomenskoe

    Ce jour, 25 Juin, Mardi

    Heure Température Précipitation Vent Pression Humidité
    00:00 +16°C° 0 mm 3 m/s 749 mmHg 78%
    01:00 +16°C° 0 mm 3 m/s 749 mmHg 78%
    02:00 +14°C° 0 mm 3 m/s 749 mmHg 79%
    03:00 +15°C° 0 mm 2 m/s 750 mmHg 79%
    04:00 +14°C° 0 mm 3 m/s 750 mmHg 80%
    05:00 +14°C° 0 mm 3 m/s 750 mmHg 80%
    06:00 +14°C° 0 mm 3 m/s 751 mmHg 81%
    07:00 +16°C° 0 mm 3 m/s 751 mmHg 76%
    08:00 +18°C° 0 mm 4 m/s 751 mmHg 70%
    09:00 +19°C° 0 mm 4 m/s 752 mmHg 66%
    10:00 +20°C° 0 mm 4 m/s 752 mmHg 62%
    11:00 +21°C° 0 mm 4 m/s 752 mmHg 59%
    12:00 +22°C° 0 mm 4 m/s 752 mmHg 55%
    13:00 +22°C° 0 mm 4 m/s 752 mmHg 56%
    14:00 +22°C° 0 mm 4 m/s 752 mmHg 56%
    15:00 +22°C° 0 mm 4 m/s 752 mmHg 57%
    16:00 +22°C° 0 mm 4 m/s 752 mmHg 60%
    17:00 +21°C° 0 mm 4 m/s 751 mmHg 63%
    18:00 +20°C° 0 mm 3 m/s 751 mmHg 66%
    19:00 +19°C° 0 mm 3 m/s 752 mmHg 68%
    20:00 +17°C° 0 mm 2 m/s 752 mmHg 69%
    21:00 +16°C° 0 mm 2 m/s 752 mmHg 71%
    22:00 +15°C° 0 mm 2 m/s 752 mmHg 72%
    23:00 +15°C° 0 mm 1 m/s 751 mmHg 72%

    Demain, 26 Juin, Mercredi

    Heure Température Précipitation Vent Pression Humidité
    00:00 +14°C° 0 mm 1 m/s 751 mmHg 73%
    01:00 +14°C° 0 mm 1 m/s 752 mmHg 73%
    02:00 +13°C° 0 mm 1 m/s 752 mmHg 74%
    03:00 +13°C° 0 mm 1 m/s 752 mmHg 74%
    04:00 +14°C° 0 mm 1 m/s 752 mmHg 76%
    05:00 +14°C° 0 mm 1 m/s 752 mmHg 77%
    06:00 +15°C° 0 mm 1 m/s 751 mmHg 79%
    07:00 +16°C° 0 mm 2 m/s 751 mmHg 75%
    08:00 +18°C° 0 mm 2 m/s 751 mmHg 70%
    09:00 +19°C° 0 mm 2 m/s 751 mmHg 66%
    10:00 +20°C° 0 mm 2 m/s 751 mmHg 61%
    11:00 +21°C° 0 mm 2 m/s 751 mmHg 57%
    12:00 +23°C° 0 mm 2 m/s 750 mmHg 52%
    13:00 +23°C° 0 mm 2 m/s 750 mmHg 53%
    14:00 +22°C° 0 mm 3 m/s 750 mmHg 54%
    15:00 +22°C° 0 mm 3 m/s 749 mmHg 55%
    16:00 +23°C° 0.2 mm 2 m/s 749 mmHg 62%
    17:00 +21°C° 0.2 mm 2 m/s 748 mmHg 68%
    18:00 +21°C° 0.2 mm 1 m/s 747 mmHg 75%
    19:00 +20°C° 0.1 mm 1 m/s 747 mmHg 77%
    20:00 +19°C° 0.1 mm 1 m/s 747 mmHg 79%
    21:00 +17°C° 0.1 mm 2 m/s 746 mmHg 81%
    22:00 +17°C° 0 mm 2 m/s 746 mmHg 84%
    23:00 +16°C° 0 mm 2 m/s 745 mmHg 87%

    Après-demain, 27 Juin, Jeudi

    Heure Température Précipitation Vent Pression Humidité
    00:00 +16°C° 0 mm 2 m/s 745 mmHg 90%
    01:00 +16°C° 0 mm 3 m/s 744 mmHg 90%
    02:00 +14°C° 0 mm 3 m/s 743 mmHg 91%
    03:00 +14°C° 0 mm 3 m/s 743 mmHg 91%
    04:00 +14°C° 0.2 mm 4 m/s 742 mmHg 91%
    05:00 +15°C° 0.2 mm 4 m/s 741 mmHg 91%
    06:00 +15°C° 0.2 mm 4 m/s 740 mmHg 91%
    07:00 +15°C° 2.5 mm 5 m/s 739 mmHg 93%
    08:00 +15°C° 2.5 mm 6 m/s 738 mmHg 94%
    09:00 +16°C° 2.5 mm 6 m/s 738 mmHg 96%
    10:00 +16°C° 1.1 mm 6 m/s 737 mmHg 95%
    11:00 +17°C° 1.1 mm 6 m/s 736 mmHg 94%
    12:00 +19°C° 1.1 mm 6 m/s 735 mmHg 93%
    13:00 +18°C° 1.9 mm 7 m/s 735 mmHg 93%
    14:00 +20°C° 1.9 mm 7 m/s 734 mmHg 93%
    15:00 +20°C° 1.9 mm 8 m/s 734 mmHg 92%
    16:00 +20°C° 0.2 mm 7 m/s 733 mmHg 91%
    17:00 +21°C° 0.2 mm 7 m/s 732 mmHg 90%
    18:00 +21°C° 0.2 mm 6 m/s 731 mmHg 88%
    19:00 +20°C° 0.8 mm 6 m/s 731 mmHg 90%
    20:00 +20°C° 0.8 mm 6 m/s 730 mmHg 92%
    21:00 +19°C° 0.8 mm 6 m/s 729 mmHg 94%
    22:00 +19°C° 3.4 mm 5 m/s 729 mmHg 94%
    23:00 +19°C° 3.4 mm 4 m/s 728 mmHg 95%

    28 Juin, Vendredi

    Heure Température Précipitation Vent Pression Humidité
    00:00 +19°C° 3.4 mm 3 m/s 727 mmHg 95%
    01:00 +18°C° 0.1 mm 3 m/s 727 mmHg 95%
    02:00 +18°C° 0.1 mm 4 m/s 727 mmHg 95%
    03:00 +17°C° 0.1 mm 5 m/s 726 mmHg 96%
    04:00 +16°C° 0 mm 6 m/s 726 mmHg 95%
    05:00 +15°C° 0 mm 6 m/s 726 mmHg 94%
    06:00 +15°C° 0 mm 6 m/s 726 mmHg 93%
    07:00 +15°C° 0 mm 6 m/s 726 mmHg 90%
    08:00 +15°C° 0 mm 6 m/s 726 mmHg 87%
    09:00 +15°C° 0 mm 7 m/s 726 mmHg 84%
    10:00 +15°C° 0.1 mm 7 m/s 726 mmHg 84%
    11:00 +15°C° 0.1 mm 7 m/s 726 mmHg 84%
    12:00 +15°C° 0.1 mm 7 m/s 726 mmHg 84%
    13:00 +16°C° 0.1 mm 7 m/s 726 mmHg 82%
    14:00 +16°C° 0.1 mm 7 m/s 726 mmHg 80%
    15:00 +16°C° 0.1 mm 7 m/s 726 mmHg 78%
    16:00 +16°C° 0.5 mm 6 m/s 726 mmHg 83%
    17:00 +15°C° 0.5 mm 6 m/s 725 mmHg 87%
    18:00 +14°C° 0.5 mm 6 m/s 725 mmHg 91%
    19:00 +13°C° 0.1 mm 6 m/s 725 mmHg 92%
    20:00 +13°C° 0.1 mm 5 m/s 725 mmHg 93%
    21:00 +12°C° 0.1 mm 5 m/s 726 mmHg 93%
    22:00 +12°C° 0.1 mm 5 m/s 726 mmHg 94%
    23:00 +10°C° 0.1 mm 5 m/s 726 mmHg 94%

    29 Juin, Samedi

    Heure Température Précipitation Vent Pression Humidité
    00:00 +10°C° 0.1 mm 5 m/s 726 mmHg 94%
    01:00 +10°C° 0.6 mm 5 m/s 726 mmHg 95%
    02:00 +10°C° 0.6 mm 6 m/s 726 mmHg 95%
    03:00 +10°C° 0.6 mm 6 m/s 726 mmHg 95%
    04:00 +10°C° 0.3 mm 6 m/s 726 mmHg 95%
    05:00 +10°C° 0.3 mm 6 m/s 726 mmHg 95%
    06:00 +10°C° 0.3 mm 6 m/s 727 mmHg 95%
    07:00 +10°C° 0.4 mm 6 m/s 727 mmHg 94%
    08:00 +10°C° 0.4 mm 6 m/s 728 mmHg 94%
    09:00 +10°C° 0.4 mm 7 m/s 728 mmHg 94%
    10:00 +10°C° 0.3 mm 7 m/s 729 mmHg 93%
    11:00 +10°C° 0.3 mm 6 m/s 730 mmHg 92%
    12:00 +10°C° 0.3 mm 6 m/s 731 mmHg 92%
    13:00 +10°C° 0.2 mm 6 m/s 731 mmHg 92%
    14:00 +10°C° 0.2 mm 6 m/s 732 mmHg 91%
    15:00 +10°C° 0.2 mm 6 m/s 733 mmHg 91%
    16:00 +10°C° 0 mm 6 m/s 733 mmHg 89%
    17:00 +10°C° 0 mm 5 m/s 734 mmHg 88%
    18:00 +10°C° 0 mm 5 m/s 734 mmHg 86%
    19:00 +11°C° 0 mm 4 m/s 734 mmHg 84%
    20:00 +10°C° 0 mm 4 m/s 735 mmHg 82%
    21:00 +10°C° 0 mm 3 m/s 735 mmHg 80%
    22:00 +10°C° 0 mm 3 m/s 735 mmHg 83%
    23:00 +9°C° 0 mm 3 m/s 735 mmHg 85%

    30 Juin, Dimanche

    Heure Température Précipitation Vent Pression Humidité
    00:00 +9°C° 0 mm 3 m/s 735 mmHg 88%
    01:00 +9°C° 0 mm 3 m/s 736 mmHg 86%
    02:00 +9°C° 0 mm 3 m/s 736 mmHg 85%
    03:00 +9°C° 0 mm 3 m/s 736 mmHg 83%
    04:00 +9°C° 0 mm 3 m/s 736 mmHg 83%
    05:00 +9°C° 0 mm 3 m/s 736 mmHg 83%
    06:00 +10°C° 0 mm 3 m/s 736 mmHg 84%
    07:00 +10°C° 0 mm 3 m/s 737 mmHg 82%
    08:00 +11°C° 0 mm 3 m/s 737 mmHg 80%
    09:00 +12°C° 0 mm 3 m/s 737 mmHg 78%
    10:00 +13°C° 0 mm 3 m/s 737 mmHg 72%
    11:00 +14°C° 0 mm 4 m/s 738 mmHg 67%
    12:00 +17°C° 0 mm 4 m/s 738 mmHg 61%
    13:00 +17°C° 0.1 mm 4 m/s 738 mmHg 61%
    14:00 +18°C° 0.1 mm 4 m/s 738 mmHg 60%
    15:00 +18°C° 0.1 mm 4 m/s 738 mmHg 59%
    16:00 +18°C° 0.1 mm 3 m/s 738 mmHg 61%
    17:00 +18°C° 0.1 mm 3 m/s 738 mmHg 64%
    18:00 +18°C° 0.1 mm 3 m/s 738 mmHg 67%
    19:00 +16°C° 0 mm 2 m/s 739 mmHg 70%
    20:00 +15°C° 0 mm 2 m/s 739 mmHg 73%
    21:00 +13°C° 0 mm 2 m/s 739 mmHg 76%
    22:00 +12°C° 0 mm 2 m/s 739 mmHg 76%
    23:00 +12°C° 0 mm 2 m/s 739 mmHg 76%
    Voir plus